| time (UTC) | temp F | wind direction | speed MPH | gust MPH | rain 1hr in | rain 24hr in | rain mn in | humidity % | barometer mb |
| 20260509024033 | 82 | 306 | 1.0 | 4.0 | 0.00 | 0.00 | 0.00 | 44 | 1012.9 |
| 20260509023048 | 83 | 304 | 0.0 | 4.0 | 0.00 | 0.00 | 0.00 | 42 | 1012.9 |
| 20260509022026 | 84 | 356 | 2.0 | 5.0 | 0.00 | 0.00 | 0.00 | 42 | 1012.9 |
| 20260509021043 | 84 | 336 | 3.0 | 8.0 | 0.00 | 0.00 | 0.00 | 41 | 1012.9 |
| 20260509020035 | 84 | 309 | 3.0 | 5.0 | 0.00 | 0.00 | 0.00 | 40 | 1012.9 |
| 20260509015015 | 84 | 3 | 3.0 | 7.0 | 0.00 | 0.00 | 0.00 | 41 | 1013.0 |
| 20260509014014 | 85 | 329 | 3.0 | 8.0 | 0.00 | 0.00 | 0.00 | 41 | 1013.1 |
| 20260509013019 | 85 | 289 | 2.0 | 6.0 | 0.00 | 0.00 | 0.00 | 40 | 1013.2 |
| 20260509012055 | 86 | 274 | 3.0 | 6.0 | 0.00 | 0.00 | 0.00 | 39 | 1013.2 |
| 20260509011033 | 86 | 281 | 2.0 | 9.0 | 0.00 | 0.00 | 0.00 | 35 | 1013.2 |
| 20260509010031 | 86 | 299 | 4.0 | 9.0 | 0.00 | 0.00 | 0.00 | 38 | 1013.3 |
| 20260509005033 | 86 | 324 | 4.0 | 9.0 | 0.00 | 0.00 | 0.00 | 37 | 1013.4 |
| 20260509004030 | 86 | 307 | 2.0 | 9.0 | 0.00 | 0.00 | 0.00 | 36 | 1013.4 |
| 20260509003027 | 87 | 330 | 5.0 | 10.0 | 0.00 | 0.00 | 0.00 | 36 | 1013.6 |
| 20260509002026 | 86 | 324 | 3.0 | 8.0 | 0.00 | 0.00 | 0.00 | 40 | 1013.7 |
| 20260509001026 | 86 | 274 | 3.0 | 5.0 | 0.00 | 0.00 | 0.00 | 40 | 1013.7 |
| 20260509000024 | 86 | 347 | 3.0 | 7.0 | 0.00 | 0.00 | 0.00 | 39 | 1013.6 |
| 20260508235020 | 86 | 329 | 3.0 | 6.0 | 0.00 | 0.00 | 0.00 | 40 | 1013.8 |
| 20260508234021 | 86 | 226 | 3.0 | 6.0 | 0.00 | 0.00 | 0.00 | 38 | 1014.0 |
| 20260508233023 | 86 | 10 | 5.0 | 7.0 | 0.00 | 0.00 | 0.00 | 43 | 1013.9 |
| 20260508232018 | 85 | 350 | 3.0 | 9.0 | 0.00 | 0.00 | 0.00 | 42 | 1014.0 |
| 20260508231037 | 85 | 16 | 1.0 | 8.0 | 0.00 | 0.00 | 0.00 | 44 | 1014.3 |
| 20260508230037 | 85 | 286 | 3.0 | 9.0 | 0.00 | 0.00 | 0.00 | 43 | 1014.4 |
| 20260508225055 | 85 | 265 | 2.0 | 5.0 | 0.00 | 0.00 | 0.00 | 44 | 1014.5 |
| 20260508223801 | 84 | 177 | 2.0 | 8.0 | 0.00 | 0.00 | 0.00 | 45 | 1014.8 |
| 20260508222759 | 84 | 231 | 5.0 | 9.0 | 0.00 | 0.00 | 0.00 | 44 | 1015.0 |
| 20260508221815 | 84 | 221 | 3.0 | 8.0 | 0.00 | 0.00 | 0.00 | 46 | 1014.9 |
| 20260508220816 | 83 | 254 | 5.0 | 8.0 | 0.00 | 0.00 | 0.00 | 45 | 1015.2 |
| 20260508215816 | 83 | 331 | 3.0 | 8.0 | 0.00 | 0.00 | 0.00 | 46 | 1015.3 |
| 20260508214810 | 82 | 322 | 3.0 | 8.0 | 0.00 | 0.00 | 0.00 | 48 | 1015.4 |
| 20260508213810 | 81 | 291 | 2.0 | 8.0 | 0.00 | 0.00 | 0.00 | 47 | 1015.8 |
| 20260508212803 | 80 | 241 | 2.0 | 8.0 | 0.00 | 0.00 | 0.00 | 50 | 1015.9 |
| 20260508211820 | 79 | 311 | 1.0 | 5.0 | 0.00 | 0.00 | 0.00 | 52 | 1015.9 |
| 20260508210817 | 79 | 307 | 3.0 | 6.0 | 0.00 | 0.00 | 0.00 | 52 | 1016.1 |
| 20260508205813 | 78 | 228 | 4.0 | 10.0 | 0.00 | 0.00 | 0.00 | 53 | 1016.3 |
| 20260508204829 | 78 | 280 | 2.0 | 12.0 | 0.00 | 0.00 | 0.00 | 53 | 1016.3 |
| 20260508203808 | 78 | 254 | 4.0 | 9.0 | 0.00 | 0.00 | 0.00 | 56 | 1016.5 |
| 20260508202811 | 78 | 244 | 2.0 | 7.0 | 0.00 | 0.00 | 0.00 | 53 | 1016.6 |
| 20260508201826 | 77 | 308 | 3.0 | 7.0 | 0.00 | 0.00 | 0.00 | 54 | 1016.8 |
| 20260508200805 | 77 | 238 | 3.0 | 6.0 | 0.00 | 0.00 | 0.00 | 56 | 1016.7 |
| 20260508195804 | 76 | 104 | 2.0 | 6.0 | 0.00 | 0.00 | 0.00 | 57 | 1016.7 |
| 20260508194759 | 76 | 342 | 2.0 | 8.0 | 0.00 | 0.00 | 0.00 | 57 | 1016.9 |
| 20260508193803 | 75 | 265 | 3.0 | 5.0 | 0.00 | 0.00 | 0.00 | 59 | 1017.1 |
| 20260508192803 | 74 | 214 | 2.0 | 6.0 | 0.00 | 0.00 | 0.00 | 61 | 1017.2 |
| 20260508191758 | 75 | 186 | 2.0 | 6.0 | 0.00 | 0.00 | 0.00 | 58 | 1017.2 |
| 20260508190800 | 74 | 7 | 2.0 | 6.0 | 0.00 | 0.00 | 0.00 | 59 | 1017.3 |
| 20260508185804 | 72 | 189 | 3.0 | 9.0 | 0.00 | 0.00 | 0.00 | 62 | 1017.4 |
| 20260508184823 | 72 | 168 | 2.0 | 7.0 | 0.00 | 0.00 | 0.00 | 63 | 1017.5 |
| 20260508183804 | 71 | 260 | 2.0 | 8.0 | 0.00 | 0.00 | 0.00 | 64 | 1017.6 |
| 20260508182802 | 71 | 176 | 2.0 | 7.0 | 0.00 | 0.00 | 0.00 | 64 | 1017.5 |
| 20260508181815 | 70 | 177 | 3.0 | 7.0 | 0.00 | 0.00 | 0.00 | 66 | 1017.6 |
| 20260508180819 | 69 | 162 | 4.0 | 8.0 | 0.00 | 0.00 | 0.00 | 68 | 1017.7 |
| 20260508175800 | 69 | 278 | 2.0 | 8.0 | 0.00 | 0.00 | 0.00 | 69 | 1017.8 |
| 20260508174758 | 68 | 180 | 4.0 | 10.0 | 0.00 | 0.00 | 0.00 | 70 | 1017.6 |
| 20260508173800 | 67 | 172 | 4.0 | 9.0 | 0.00 | 0.00 | 0.00 | 72 | 1017.8 |
| 20260508172802 | 66 | 108 | 2.0 | 8.0 | 0.00 | 0.00 | 0.00 | 72 | 1017.8 |
| 20260508171758 | 66 | 182 | 2.0 | 8.0 | 0.00 | 0.00 | 0.00 | 72 | 1018.0 |
| 20260508170758 | 66 | 149 | 3.0 | 7.0 | 0.00 | 0.00 | 0.00 | 72 | 1018.1 |
| 20260508165800 | 65 | 183 | 3.0 | 8.0 | 0.00 | 0.00 | 0.00 | 74 | 1018.0 |
| 20260508164813 | 64 | 121 | 2.0 | 8.0 | 0.00 | 0.00 | 0.00 | 75 | 1017.9 |
| 20260508163808 | 64 | 189 | 3.0 | 7.0 | 0.00 | 0.00 | 0.00 | 76 | 1017.9 |
| 20260508162811 | 63 | 107 | 6.0 | 9.0 | 0.00 | 0.00 | 0.00 | 75 | 1017.8 |
| 20260508161828 | 62 | 228 | 3.0 | 5.0 | 0.00 | 0.00 | 0.00 | 77 | 1017.9 |
| 20260508160829 | 62 | 157 | 4.0 | 8.0 | 0.00 | 0.00 | 0.00 | 78 | 1017.9 |
| 20260508155810 | 61 | 130 | 4.0 | 9.0 | 0.00 | 0.00 | 0.00 | 80 | 1017.9 |
| 20260508154828 | 60 | 137 | 4.0 | 7.0 | 0.00 | 0.00 | 0.00 | 82 | 1018.0 |
| 20260508153807 | 59 | 122 | 4.0 | 8.0 | 0.00 | 0.00 | 0.00 | 82 | 1018.1 |
| 20260508152828 | 58 | 191 | 5.0 | 8.0 | 0.00 | 0.00 | 0.00 | 83 | 1018.0 |
| 20260508151805 | 58 | 171 | 4.0 | 8.0 | 0.00 | 0.00 | 0.00 | 85 | 1017.9 |
| 20260508150806 | 57 | 132 | 2.0 | 8.0 | 0.00 | 0.00 | 0.00 | 85 | 1017.9 |
| 20260508145808 | 57 | 114 | 3.0 | 8.0 | 0.00 | 0.00 | 0.00 | 86 | 1018.0 |
| 20260508144805 | 56 | 172 | 5.0 | 8.0 | 0.00 | 0.00 | 0.00 | 87 | 1017.7 |
| 20260508143806 | 56 | 108 | 3.0 | 8.0 | 0.00 | 0.00 | 0.00 | 88 | 1017.6 |
| 20260508142809 | 55 | 159 | 5.0 | 8.0 | 0.00 | 0.00 | 0.00 | 90 | 1017.5 |
| 20260508141826 | 54 | 132 | 5.0 | 9.0 | 0.00 | 0.00 | 0.00 | 90 | 1017.3 |
| 20260508140806 | 54 | 167 | 4.0 | 8.0 | 0.00 | 0.00 | 0.00 | 90 | 1017.3 |
| 20260508135810 | 54 | 155 | 3.0 | 7.0 | 0.00 | 0.00 | 0.00 | 91 | 1017.1 |
| 20260508134808 | 54 | 177 | 3.0 | 9.0 | 0.00 | 0.00 | 0.00 | 91 | 1017.1 |
| 20260508133810 | 53 | 126 | 5.0 | 9.0 | 0.00 | 0.00 | 0.00 | 91 | 1017.1 |
| 20260508132810 | 53 | 132 | 4.0 | 8.0 | 0.00 | 0.00 | 0.00 | 90 | 1017.0 |
| 20260508131808 | 53 | 156 | 3.0 | 6.0 | 0.00 | 0.00 | 0.00 | 90 | 1017.1 |
| 20260508130811 | 54 | 178 | 3.0 | 7.0 | 0.00 | 0.00 | 0.00 | 90 | 1017.1 |
| 20260508125813 | 54 | 162 | 3.0 | 8.0 | 0.00 | 0.00 | 0.00 | 90 | 1017.0 |
| 20260508124809 | 54 | 164 | 3.0 | 7.0 | 0.00 | 0.00 | 0.00 | 90 | 1016.8 |
| 20260508123813 | 54 | 158 | 3.0 | 6.0 | 0.00 | 0.00 | 0.00 | 90 | 1016.7 |
| 20260508122816 | 54 | 159 | 2.0 | 7.0 | 0.00 | 0.00 | 0.00 | 90 | 1016.9 |
| 20260508121817 | 54 | 152 | 3.0 | 6.0 | 0.00 | 0.00 | 0.00 | 90 | 1016.8 |
| 20260508120817 | 54 | 130 | 3.0 | 8.0 | 0.00 | 0.00 | 0.00 | 90 | 1016.6 |
| 20260508115838 | 54 | 141 | 3.0 | 7.0 | 0.00 | 0.00 | 0.00 | 90 | 1016.7 |
| 20260508114814 | 55 | 184 | 2.0 | 6.0 | 0.00 | 0.00 | 0.00 | 90 | 1016.4 |
| 20260508113816 | 55 | 159 | 3.0 | 7.0 | 0.00 | 0.00 | 0.00 | 89 | 1016.5 |
| 20260508112758 | 55 | 128 | 3.0 | 8.0 | 0.00 | 0.00 | 0.00 | 89 | 1016.4 |
| 20260508111837 | 55 | 122 | 3.0 | 7.0 | 0.00 | 0.00 | 0.00 | 89 | 1016.4 |
| 20260508110800 | 55 | 141 | 3.0 | 8.0 | 0.00 | 0.00 | 0.00 | 89 | 1016.4 |
| 20260508105801 | 56 | 152 | 4.0 | 7.0 | 0.00 | 0.00 | 0.00 | 89 | 1016.4 |
| 20260508104822 | 56 | 170 | 3.0 | 6.0 | 0.00 | 0.00 | 0.00 | 89 | 1016.5 |
| 20260508103802 | 56 | 139 | 3.0 | 8.0 | 0.00 | 0.00 | 0.00 | 89 | 1016.5 |
| 20260508102805 | 56 | 149 | 2.0 | 5.0 | 0.00 | 0.00 | 0.00 | 88 | 1016.6 |
| 20260508101807 | 56 | 155 | 2.0 | 5.0 | 0.00 | 0.00 | 0.00 | 88 | 1016.5 |
| 20260508100812 | 56 | 143 | 3.0 | 6.0 | 0.00 | 0.00 | 0.00 | 88 | 1016.4 |
| 20260508095816 | 56 | 109 | 3.0 | 8.0 | 0.00 | 0.00 | 0.00 | 88 | 1016.3 |
| 20260508094801 | 57 | 109 | 2.0 | 6.0 | 0.00 | 0.00 | 0.00 | 88 | 1016.4 |
| 20260508093800 | 57 | 118 | 3.0 | 7.0 | 0.00 | 0.00 | 0.00 | 87 | 1016.3 |
| 20260508092803 | 57 | 114 | 3.0 | 7.0 | 0.00 | 0.00 | 0.00 | 87 | 1016.5 |
| 20260508091808 | 57 | 110 | 2.0 | 6.0 | 0.00 | 0.00 | 0.00 | 87 | 1016.4 |
| 20260508090802 | 57 | 124 | 1.0 | 6.0 | 0.00 | 0.00 | 0.00 | 86 | 1016.3 |
| 20260508085804 | 58 | 153 | 1.0 | 6.0 | 0.00 | 0.00 | 0.00 | 86 | 1016.1 |
| 20260508084808 | 58 | 134 | 2.0 | 6.0 | 0.00 | 0.00 | 0.00 | 86 | 1016.2 |
| 20260508083805 | 58 | 118 | 3.0 | 6.0 | 0.00 | 0.00 | 0.00 | 85 | 1016.2 |
| 20260508082810 | 59 | 145 | 1.0 | 6.0 | 0.00 | 0.00 | 0.00 | 85 | 1016.2 |
| 20260508081833 | 59 | 142 | 4.0 | 9.0 | 0.00 | 0.00 | 0.00 | 84 | 1016.3 |
| 20260508080808 | 60 | 179 | 2.0 | 8.0 | 0.00 | 0.00 | 0.00 | 83 | 1016.1 |
| 20260508075810 | 60 | 171 | 4.0 | 9.0 | 0.00 | 0.00 | 0.00 | 83 | 1016.1 |
| 20260508074809 | 61 | 161 | 4.0 | 8.0 | 0.00 | 0.00 | 0.00 | 83 | 1016.0 |
| 20260508073806 | 61 | 155 | 2.0 | 6.0 | 0.00 | 0.00 | 0.00 | 83 | 1015.8 |
| 20260508072802 | 61 | 162 | 1.0 | 7.0 | 0.00 | 0.00 | 0.00 | 82 | 1015.7 |
| 20260508071808 | 62 | 118 | 3.0 | 9.0 | 0.00 | 0.00 | 0.00 | 82 | 1015.7 |
| 20260508070809 | 62 | 214 | 3.0 | 6.0 | 0.00 | 0.00 | 0.00 | 81 | 1015.8 |
| 20260508065821 | 62 | 171 | 2.0 | 6.0 | 0.00 | 0.00 | 0.00 | 81 | 1015.8 |
| 20260508064809 | 63 | 170 | 2.0 | 5.0 | 0.00 | 0.00 | 0.00 | 80 | 1015.8 |
| 20260508063826 | 63 | 122 | 1.0 | 6.0 | 0.00 | 0.00 | 0.00 | 79 | 1015.6 |
| 20260508062819 | 63 | 162 | 3.0 | 8.0 | 0.00 | 0.00 | 0.00 | 79 | 1015.7 |
| 20260508061818 | 64 | 128 | 3.0 | 9.0 | 0.00 | 0.00 | 0.00 | 78 | 1015.6 |
| 20260508060802 | 64 | 142 | 3.0 | 10.0 | 0.00 | 0.00 | 0.00 | 78 | 1015.6 |
| 20260508055819 | 65 | 170 | 4.0 | 10.0 | 0.00 | 0.00 | 0.00 | 77 | 1015.6 |
| 20260508054816 | 66 | 152 | 4.0 | 8.0 | 0.00 | 0.00 | 0.00 | 76 | 1015.6 |
| 20260508053817 | 66 | 159 | 3.0 | 8.0 | 0.00 | 0.00 | 0.00 | 76 | 1015.6 |
| 20260508052815 | 67 | 130 | 4.0 | 8.0 | 0.00 | 0.00 | 0.00 | 75 | 1015.5 |
| 20260508051811 | 68 | 169 | 5.0 | 8.0 | 0.00 | 0.00 | 0.00 | 74 | 1015.3 |
| 20260508050833 | 68 | 174 | 2.0 | 7.0 | 0.00 | 0.00 | 0.00 | 72 | 1015.5 |
| 20260508045806 | 69 | 202 | 2.0 | 6.0 | 0.00 | 0.00 | 0.00 | 72 | 1015.5 |
| 20260508044802 | 70 | 176 | 2.0 | 4.0 | 0.00 | 0.00 | 0.00 | 71 | 1015.5 |
| 20260508043819 | 70 | 189 | 2.0 | 5.0 | 0.00 | 0.00 | 0.00 | 70 | 1015.2 |
| 20260508042811 | 71 | 171 | 3.0 | 7.0 | 0.00 | 0.00 | 0.00 | 69 | 1015.1 |
| 20260508041811 | 72 | 170 | 3.0 | 6.0 | 0.00 | 0.00 | 0.00 | 68 | 1015.1 |
| 20260508040811 | 72 | 177 | 3.0 | 5.0 | 0.00 | 0.00 | 0.00 | 67 | 1015.1 |
| 20260508035805 | 73 | 184 | 2.0 | 7.0 | 0.00 | 0.00 | 0.00 | 65 | 1014.7 |
| 20260508034804 | 74 | 169 | 3.0 | 7.0 | 0.00 | 0.00 | 0.00 | 65 | 1014.7 |
| 20260508033801 | 75 | 199 | 3.0 | 7.0 | 0.00 | 0.00 | 0.00 | 64 | 1014.6 |
| 20260508032807 | 76 | 211 | 2.0 | 8.0 | 0.00 | 0.00 | 0.00 | 63 | 1014.6 |
| 20260508031841 | 77 | 192 | 3.0 | 10.0 | 0.00 | 0.00 | 0.00 | 61 | 1014.4 |
| 20260508030816 | 79 | 174 | 2.0 | 10.0 | 0.00 | 0.00 | 0.00 | 59 | 1014.4 |
| 20260508025812 | 80 | 195 | 4.0 | 9.0 | 0.00 | 0.00 | 0.00 | 55 | 1014.2 |
| 20260508024810 | 81 | 154 | 1.0 | 4.0 | 0.00 | 0.00 | 0.00 | 51 | 1013.9 |